sat.trackr.live / text

‹ back to catalog

STARLINK-36804

NORAD 67799 · 2026-032C

PAYLOAD ACTIVE UNKNOWN

§ Identity

Operator
Country
US
Launch date
2026-02-15
Launch site
AFWTR
Launch vehicle
Mass (kg)
RCS (m²)

Purposes: comms

External: N2YO · Heavens-Above · Gunter

§ Orbital elements

Epoch: 2026-05-25T01:59:44.873664Z

Period
93.91 min
Inclination
97.2857°
Eccentricity
0.0001987
Mean motion
15.33447230 rev/d
Perigee alt
464.2 km
Apogee alt
466.9 km
Semi-major
6,843.7 km
B*
5.7603e-4
RAAN
333.1081°
Arg perigee
77.9357°
Mean anomaly
282.2109°
Rev number
1,666

§ Raw data

STARLINK-368041 67799U 26032C   26145.08315826  .00018569  00000+0  57603-3 0  99942 67799  97.2857 333.1081 0001987  77.9357 282.2109 15.33447230 16665

JSON: /api/v1/satellites/67799 · /tle

For live sub-satellite position, see the globe view (requires WebGL).

§ Visibility from observer

Set your observer location to see the next 7 days of passes ≥ 10°. The values pass through the URL so the page stays shareable.

No JS? Fill the form by hand. The geolocation button needs JavaScript.